Regional Weather Roundup
Issued by NWS

Home | Current Version | Previous Version | Graphics & Text | Print | Product List | Glossary On
Versions: 1 2 3 4 5 6 7 8 9 10 11 12 13 14 15 16 17 18 19 20 21 22 23 24 25 26 27 28 29 30 31 32 33 34 35 36 37 38 39 40 41 42 43 44 45 46 47 48 49 50
000
ASUS43 KDMX 230808
RWRIA

WEATHER ROUNDUP FOR IOWA
NATIONAL WEATHER SERVICE DES MOINES IA
300 AM CDT SAT JUL 23 2016

NOTE: "FAIR" INDICATES FEW OR NO CLOUDS BELOW 12,000 FEET WITH NO
SIGNIFICANT WEATHER AND/OR OBSTRUCTIONS TO VISIBILITY.

* - THESE STATIONS ARE NOT NWS STATIONS...THUS NOT UNDER NWS
QUALITY CONTROL.  THEY ALSO DO NOT REPORT WEATHER SUCH
AS PRECIPITATION OR FOG.

IAZ001>003-012>014-020>022-031>034-043>046-230900-
   NORTHWEST IOWA

CITY           SKY/WX    TMP DP  RH WIND       PRES   REMARKS
CARROLL *      PTCLDY    79  77  94 SE5       29.91S HX  83
CHEROKEE *     CLOUDY    79  78  98 SE7       29.89F HX  84
DENISON *      CLOUDY    79  77  94 S12       29.89F HX  83
LE MARS *      CLOUDY    81  77  89 SE9       29.89S HX  88
SHELDON *      CLOUDY    79  79 100 E5        29.88F HX  83
SIOUX CITY     PTCLDY    81  78  91 SE9       29.87F HX  89
SPENCER        PTCLDY    79  77  94 SE9       29.91F HX  83
STORM LAKE *   CLOUDY    77  77 100 SE9       29.92F
$$

IAZ055>058-069>071-079>083-090>094-230900-
   SOUTHWEST IOWA

CITY           SKY/WX    TMP DP  RH WIND       PRES   REMARKS
ATLANTIC *     MOCLDY    81  77  89 S7        29.93S HX  88
CLARINDA *       N/A     81  77  89 MISG      29.95S HX  88
COUNCIL BLFS *   N/A     81  75  83 S12       29.92R HX  86
CRESTON *      CLOUDY    79  77  94 S8        29.97F HX  83
HARLAN  *      CLOUDY    79  77  94 S7        29.96R HX  83
LAMONI         CLOUDY    78  77  96 S8        29.96F HX  81
RED OAK *      MOCLDY    81  77  89 S3        29.92S HX  88
SHENANDOAH *   MOCLDY    82  77  83 S10       29.92S HX  91
$$

IAZ047>049-059>061-072>074-084-230900-
   CENTRAL IOWA

CITY           SKY/WX    TMP DP  RH WIND       PRES   REMARKS
AMES           CLEAR     77  77 100 SE7       29.94F
ANKENY *         N/A    N/A N/A N/A MISG        N/A
BOONE *          N/A     77  77 100 SE7       29.93F
CHARITON *       N/A    N/A N/A N/A MISG        N/A
DES MOINES     PTCLDY    80  76  87 S10       29.94F HX  86
GRINNELL*      CLOUDY    76  74  92 SE6       29.98S
KNOXVILLE *    CLEAR     77  75  94 SE6       29.95F
MARSHALLTOWN   CLOUDY    77  76  96 SE6       29.96F
NEWTON *       CLOUDY    77  77 100 S5        29.96S
PELLA *        CLOUDY    77  74  93 SE3       29.96F
PERRY *          N/A     79  78  97 SE8       29.92F HX  83
$$

IAZ004>006-015-016-023>025-035-036-230900-
   NORTH CENTRAL IOWA

CITY           SKY/WX    TMP DP  RH WIND       PRES   REMARKS
ALGONA *       CLEAR     79  77  94 SE7       29.93F HX  83
ESTHERVILLE    PTCLDY    77  77 100 SE7       29.93F
FORT DODGE *   PTCLDY    79  77  94 SE8       29.94F HX  83
MASON CITY     CLEAR     77  75  93 SE6       29.98F
FOREST CITY *    N/A     73  73 100 E3        29.96F
IOWA FALLS *     N/A     78  75  91 SE6       29.97F HX  81
$$

IAZ007>011-017>019-026>030-037>042-050>054-066-230900-
   NORTHEAST IOWA

CITY           SKY/WX    TMP DP  RH WIND       PRES   REMARKS
CEDAR RAPIDS   CLEAR     76  76 100 SE3       29.98R
CHARLES CITY * MOCLDY    75  75 100 E6        29.98S
CLINTON *      CLEAR     74  73  97 E5        29.99F
DECORAH *      CLEAR     77  77 100 S3        29.98S
DUBUQUE        CLOUDY    76  75  97 S3        30.01R
MONTICELLO *   CLOUDY    77  75  94 CALM      29.98S
OELWEIN *      MOCLDY    77  77 100 SE5       29.99S FOG
WATERLOO       PTCLDY    78  76  93 SE6       29.95F HX  81
$$

IAZ064-065-067-068-078-230900-
   EAST CENTRAL IOWA

CITY           SKY/WX    TMP DP  RH WIND       PRES   REMARKS
DAVENPORT      CLEAR     75  73  93 E3        29.99S
IOWA CITY      CLEAR     78  75  90 CALM      29.99S HX  81
MT. PLEASANT * CLEAR     79  79 100 CALM      29.98S HX  83
MUSCATINE *    CLEAR     75  73  94 CALM      29.97S
QUAD CITIES    CLEAR     77  74  90 E5        29.97F
$$

IAZ062-063-075>077-085>089-095>099-230900-
   SOUTHEAST IOWA

CITY           SKY/WX    TMP DP  RH WIND       PRES   REMARKS
BURLINGTON     CLEAR     76  76 100 S3        29.97F
FAIRFIELD *    CLOUDY    75  73  94 CALM      29.97F
KEOKUK *       CLEAR     77  77 100 CALM      29.97F
CENTERVILLE *    N/A     75  75 100 CALM      29.99S
OTTUMWA        CLOUDY    77  74  90 S6        29.97F
WASHINGTON *   CLEAR     75  75 100 S5        29.98F
$$

ABBREVIATIONS USED IN REMARKS
   TC - TEMPERATURES IN CELSIUS
  WCI - WIND CHILL INDEX
   HX - HEAT INDEX
  VSB - VISIBILITY
$$




USA.gov is the U.S. government's official web portal to all federal, state and local government web resources and services.